Location: Stanford
(52.2833°N, 2.4333°W)
Time: 01:28:24
(UTC+00:00)

MOS 1 Rocket - Pass Details

Date: 22 January 2021
Orbit: 614 x 830 km, 97.4° (Epoch: 28 February)

Event Time Altitude Azimuth Distance (km) Brightness Sun altitude
Exits shadow 18:39:59 - 14° (NNE) 2,265 5.7 -18.1°
Reaches altitude 10° 18:40:36 10° 14° (NNE) 2,009 5.5 -18.2°
Maximum altitude 18:44:57 86° 104° (ESE) 625 2.9 -18.8°
Drops below altitude 10° 18:49:13 10° 194° (SSW) 1,974 5.9 -19.5°
Sets 18:51:24 0° 194° (SSW) 2,882 6.8 -19.8°
